www.pogodaiklimat.ru

Погода и климат >> Архив погоды >> Россия >> Сахалинская область >> Остров Монерон


ПОГОДА на Острове Монерон

  • Прогноз погоды на Острове Монерон
  • Монитор погоды на Острове Монерон

АРХИВ ПОГОДЫ на Острове Монерон

Время (UTC), дата Ветер
(напр.,м/с)
 
Видим.   Явления Облачность Т
(С)
Тd
(С)
f
(%)
Тe
(С)
Тes
(С)
Комфортность P
(гПа)
Po
(гПа)
Тmin
(С)
Tmax
(С)
R
(мм)
R24
(мм)
S
(см)
21 11.09 СВ 5-6
{14}
10 км слаб. ливневой дождь 10/10 300 м
[Cb cap]
+12.7 +10.4 86 +10 +10 1013.9 1000.9 +11.3 23
00 12.09 СВ 5-7
{12}
20 км {ливн. осадки} 8/8 600 м
[Sc]
+15.1 +12.0 82 +14 +15 1015.7 1002.7
03 12.09 С 6-10
{14}
20 км 4/4 600 м
[Sc]
+16.9 +10.5 66 +16 +19 1015.0 1002.2
06 12.09 С 6-10
{11}
20 км 6/6 600 м
[Sc]
+15.7 +10.5 71 +14 +15 1016.9 1004.0
09 12.09 С 5-10
{10}
20 км 4/4 600 м
[Sc]
+14.2 +10.2 77 +13 +13 1016.0 1003.0 +17.1 5
12 12.09 С 4-6
{10}
20 км 1/1 600 м
[Sc]
+14.1 +9.9 76 +13 +13 1018.3 1005.3
15 12.09 СЗ 3-6
{7}
20 км 3/3 600 м
[Sc]
+14.3 +10.3 77 +13 +13 1017.8 1004.8
18 12.09 СЗ 3-5
{8}
20 км ясно +13.8 +9.9 77 +13 +13 1017.6 1004.6
21 12.09 С 2-5
{6}
50 км ясно +14.8 +10.3 74 +15 +15 1018.6 1005.7 +13.7
00 13.09 Ю 3-5
{5}
50 км ясно +18.4 +12.4 68 +19 +25 1019.6 1006.7
03 13.09 ЮЗ 5-7
{7}
50 км ясно +19.0 +11.8 63 +20 +26 1019.5 1006.7
06 13.09 ЮЗ 7-9
{9}
50 км 4/0
[Ci fib]
+18.6 +9.1 54 +18 +19 1016.8 1004.0
09 13.09 ЮЗ 9-11
{11}
50 км 4/0
[Ac trans Ci fib]
+17.2 +10.5 65 +16 +16 1016.8 1004.0 +19.2
12 13.09 ЮЗ 9-13
{13}
20 км 8/0
[Ac trans Ci fib]
+17.3 +11.6 69 +16 +16 1016.9 1004.0
15 13.09 ЮЗ 11-14
{14}
20 км 10/10 600 м
[Sc]
+17.4 +11.7 69 +16 +16 1014.7 1001.9
18 13.09 ЮЗ 11-14
{14}
20 км 10/10 600 м
[Sc]
+17.8 +11.6 67 +16 +16 1012.8 1000.0
21 13.09 ЮЗ 13-17
{18}
20 км 10/10 600 м
[Sc]
+18.3 +12.3 68 +17 +17 1011.2 998.5 +17.1
00 14.09 ЮЗ 16-20
{22}
20 км 10/10 600 м
[Sc]
+18.6 +13.9 74 +18 +18 1010.0 997.3
03 14.09 ЮЗ 16-20
{21}
20 км 10/10 300 м
[Cb cap]
+18.1 +14.9 82 +17 +17 1007.5 994.8
06 14.09 ЮЗ 13-19
{23}
20 км {ливн. осадки} 10/10 300 м
[Cb cap]
+17.6 +14.3 81 +16 +16 1007.4 994.7
09 14.09 ЮЗ 9-13
{20}
10 км слаб. ливневой дождь 9/9 300 м
[Cb cap]
+15.7 +14.3 91 +14 +14 1007.1 994.4 +18.6 0.5
12 14.09 ЮЗ 5-9
{13}
20 км {ливн. осадки} 8/8 300 м
[Cb cap]
+15.9 +14.3 90 +15 +15 1010.1 997.3
15 14.09 З 6-10
{12}
20 км 3/3 600 м
[Sc]
+16.4 +13.8 85 +15 +15 1009.3 996.6
18 14.09 С 9-13
{14}
20 км 1/0
[Ci fib]
+16.1 +10.2 68 +14 +14 1011.6 998.7
21 14.09 С 7-11
{13}
20 км ясно +16.2 +10.5 69 +15 +15 1011.5 998.7 +15.6
00 15.09 С 5-7
{11}
50 км ясно +18.5 +12.5 68 +19 +22 1014.1 1001.3
03 15.09 С 4-6
{7}
50 км 1/1 1000 м
[Cu med, cong]
+19.5 +13.3 67 +21 +28 комфорт 1012.5 999.9
06 15.09 С 3-4
{6}
50 км 1/1 600 м
[Cu hum]
+18.4 +12.6 69 +19 +22 1012.8 1000.0
09 15.09 С 1-2
{4}
20 км ясно +15.1 +11.7 80 +16 +16 1013.0 1000.1 +19.6
12 15.09 В 1-3
{3}
20 км 3/0
[Ac trans]
+16.0 +12.9 82 +17 +17 1014.2 1001.3
15 15.09 Ю 6-8
{8}
20 км 8/8 300 м
[Cb cap]
+16.4 +15.2 93 +15 +15 1012.7 999.9
18 15.09 ЮВ 10-12
{12}
20 км 10/10 600 м
[Sc]
+15.6 +14.0 90 +13 +13 1012.9 1000.0
21 15.09 ЮВ 10-12
{13}
20 км 10/10 600 м
[Sc]
+15.3 +14.1 93 +13 +13 1011.2 998.4 +14.8
00 16.09 ЮВ 5-11
{14}
20 км 10/10 600 м
[Sc]
+16.6 +15.1 91 +16 +16 1011.5 998.7
03 16.09 ЮВ 6-11
{12}
20 км 10/10 300 м
[St]
+16.3 +15.4 94 +15 +15 1008.8 996.0
06 16.09 ЮВ 4-10
{12}
20 км 10/10 300 м
[St]
+17.2 +15.7 91 +17 +17 1007.4 994.7
09 16.09 ЮВ 2-5
{12}
20 км 10/10 300 м
[St]
+16.2 +14.9 92 1007.4 +17.2
12 16.09 СВ 3-4
{5}
20 км 3/3 300 м
[St]
+16.3 +14.7 90 +16 +16 1008.8 996.0
15 16.09 С 4-6
{6}
20 км 4/4 600 м
[Sc]
+16.0 +14.2 89 +15 +15 1007.7 995.0
18 16.09 С 7-12
{12}
20 км 4/3 600 м
[Sc Ci fib]
+15.3 +12.8 85 +13 +13 1008.9 996.0
21 16.09 С 7-13
{14}
20 км 3/3 600 м
[Cu med, cong]
+15.3 +10.0 71 +14 +14 1009.5 996.7 +15.0
00 17.09 С 8-14
{14}
20 км ясно +15.8 +6.2 53 +14 +15 1011.6 998.7
03 17.09 С 7-13
{15}
50 км 1/1 600 м
[Cu hum]
+16.2 +7.1 55 +15 +18 1011.2 998.4
06 17.09 С 4-7
{13}
50 км 1/1 600 м
[Cu hum]
+15.6 +6.6 55 +15 +17 1012.9 1000.0
09 17.09 СЗ 3-5
{8}
50 км ясно +12.9 +3.2 52 +12 +12 1013.2 1000.2 +16.4
12 17.09 СЗ 2-3
{6}
20 км ясно +12.5 +5.2 61 +12 +12 1015.8 1002.7
15 17.09 СЗ 1
{3}
20 км ясно +12.8 +4.7 58 +13 +13 1015.8 1002.7
18 17.09 ЮЗ 1-2
{2}
20 км 8/0
[Ci fib]
+13.2 +5.4 59 +14 +14 1014.3 1001.3
21 17.09 ЮВ 3-8
{8}
20 км 8/6 600 м
[Sc Ci fib]
+13.7 +6.6 62 +13 +13 1012.6 999.7 +11.5
00 18.09 ЮВ 12 20 км 6 баллов +15.0 +8.5 65 +12 +12 1011.6 998.7
03 18.09 ЮВ 12-16
{16}
20 км 4/1 600 м
[Sc Ci fib]
+16.3 +9.7 65 +14 +14 1007.8 995.1
06 18.09 ЮВ 16 20 км 9 баллов +15.2 +12.1 82 +12 +12 1004.8 992.0
09 18.09 Ю 2-4
{28}
10 км слаб. ливневой дождь 10/10 300 м
[Cb cap]
+13.0 +12.5 97 +12 +12 1002.2 989.3 +16.5 25
12 18.09 З 7 20 км 7 баллов +12.0 +5.4 64 +9 +9 1003.7 990.7
15 18.09 З 6-13
{17}
20 км {ливн. осадки} 8/8 600 м
[Sc]
+10.6 +3.9 63 +8 +8 1003.0 990.1

 

Местоположение метеостанции Остров Монерон (Сахалинская область, Россия): широта 46.25 долгота 141.20 высота над уровнем моря 109 м.

В архиве по умолчанию представлена погода на Острове Монерон за последнюю неделю. Архивные данные за месяц целиком и за предыдущие месяцы, начиная с января 2011 года, Вы можете получить, выбрав интересующий диапазон дат из раскрывающегося списка и нажав кнопку "Ввод!".


*Определитесь, кто Вы:
робот инопланетянин человек

Внимание! Время в таблицах - всемирное. Для получения местного времени необходимо прибавить поправку, которая равна 11 ч.

Смотрите также архив погоды в соседних городах и на ближайших метеорологических станциях:

Погода в Невельске (Сахалинская область, Россия) (66 км)
Погода на Мысе Крильон (Сахалинская область, Россия) (73 км)
Погода в Вакканае (Япония) (100 км)
Погода в Холмске (Сахалинская область, Россия) (108 км)
Погода в Огоньках (Сахалинская область, Россия) (109 км)
Погода в Корсакове (Сахалинская область, Россия) (123 км)
Погода в Южно-Сахалинске (Сахалинская область, Россия) (139 км)
Погода в Новиково (Сахалинская область, Россия) (162 км)
Погода в Долинске (Сахалинская область, Россия) (171 км)
Погода в Мальково (Сахалинская область, Россия) (171 км)

Пояснения к столбцам:

Ветер - указаны скорость ветра в м/с - средняя за 10 мин, порывы в срок и между сроками (в фигурных скобках) и направление, откуда дует ветер: С - северный, СВ - северо-восточный, В - восточный, ЮВ - юго-восточный, Ю - южный, ЮЗ - юго-западный, З - западный, СЗ - северо-западный.
Видимость - горизонтальная дальность видимости в метрах или километрах. При видимости от 1 до 10 км при отсутствии осадков обычно наблюдается дымка, при ухудшении видимости до 1 км и менее - туман. В сухую погоду видимость может ухудшаться дымом, пылью или мглою.
Явления - указаны атмосферные явления, наблюдавшиеся в срок или в последний час перед сроком; фигурными скобками обозначены явления, наблюдавшиеся между сроками (за 1-3 часа до срока); квадратными скобками обозначены град или гололедные отложения с указанием их диаметра в мм.
Облачность - указаны через наклонную черту общая и нижняя облачность в баллах и высота нижней границы облаков в метрах; квадратными скобками обозначены формы облаков: Ci - перистые, Cs - перисто-слоистые, Cc - перисто-кучевые, Ac - высококучевые, As - высокослоистые, Sc - слоисто-кучевые, Ns - слоисто-дождевые, Cu - кучевые, Cb - кучево-дождевые. Подробнее классификацию облаков см. в Атласе облаков (PDF).
T - Температура воздуха - температура, измеренная на высоте 2 м над землей.
Td - Температура точки росы - температура, при понижении до которой содержащийся в воздухе водяной пар достигнет насыщения.
f - Относительная влажность воздуха - влажноcть воздуха, измеренная на высоте 2 м над землей.
Te - Эффективная температура - температура, которую ощущает одетый по сезону человек в тени. Характеристика душности погоды. При расчете учитывается влияние влажности воздуха и скорости ветра на теплоощущения человека.
Tes - Эффективная температура на солнце - температура, которую ощущает человек, с поправкой на солнечный нагрев. Характеристика знойности погоды. Зависит от высоты солнца над горизонтом, облачности и скорости ветра. Ночью, в пасмурную погоду, а также при ветре 12 м/с и более поправка равна нулю.
P - Атмосферное давление - приведенное к уровню моря атмосферное давление.
Po - Атмосферное давление - измеренное на уровне метеостанции атмосферное давление.
Tmin - Минимальная температура - минимум температуры воздуха на высоте 2 м над землей.
Tmax - Максимальная температура - максимум температуры воздуха на высоте 2 м над землей.
R - Количество осадков - Количество выпавших осадков за период времени, мм. При наведении курсора мыши на число - период времени, за который выпало указанное количество осадков.
R24 - Количество осадков - Количество выпавших осадков за 24 часа, мм.
S - Снежный покров - Высота снежного покрова, см. При наведении курсора мыши на число - состояние снежного покрова и степень покрытия местности в баллах.